Regional Weather Roundup
Issued by NWS

Home | Current Version | Previous Version | Text Only | Print | Product List | Glossary Off
Versions: 1 2 3 4 5 6 7 8 9 10 11 12 13 14 15 16 17 18 19 20 21 22 23 24 25 26 27 28 29 30 31 32 33 34 35 36 37 38 39 40 41 42 43 44 45 46 47 48 49 50

000
ASUS43 KMPX 060301
RWRMN
WEATHER ROUNDUP FOR MINNESOTA
NATIONAL WEATHER SERVICE TWIN CITIES/CHANHASSEN MN
1000 PM CDT THU MAY 05 2016


NOTE: "FAIR" INDICATES FEW OR NO CLOUDS BELOW 12,000 FEET WITH NO
SIGNIFICANT WEATHER AND/OR OBSTRUCTIONS TO VISIBILITY. N/A MEANS
CURRENT SKY AND/OR WEATHER CONDITIONS ARE NOT AVAILABLE.

MNZ060>063-068>070-060400-
   Twin Cities Metro

CITY           SKY/WX    TMP DP  RH WIND       PRES   REMARKS
TWIN CITIES    PTCLDY    71  39  31 SW6       29.88R
ST PAUL        CLEAR     62  46  55 E3        29.88R
CRYSTAL        CLEAR     70  40  33 S5        29.86S
BLAINE         CLEAR     66  43  42 S5        29.87S
EDEN PRAIRIE   CLEAR     68  40  35 SW9       29.88R
SOUTH ST PAUL  CLEAR     63  44  49 CALM      29.88S
LAKE ELMO      FAIR      59  43  55 S5        29.89S
$$
MNZ001>005-007-008-013>017-022>024-027-028-060400-
   Northwest Minnesota

CITY           SKY/WX    TMP DP  RH WIND       PRES   REMARKS
BEMIDJI        CLEAR     73  38  28 SW7       29.78S
HALLOCK        PTCLDY    77  32  19 SW12      29.67S
ROSEAU         CLEAR     72  45  37 SW8       29.69S
WARROAD        CLEAR     79  46  31 SW6       29.69S HAZE
THIEF RVR FALL CLEAR     75  30  19 SW10      29.75S
CROOKSTON      CLEAR     70  36  28 SW6       29.74S
FOSSTON        CLEAR     63  34  34 S6        29.78S
DETROIT LAKES  CLEAR     73  37  27 SW9       29.83R
MOORHEAD       CLEAR     75  37  25 S10       29.79R
PARK RAPIDS    CLEAR     69  38  32 SW10      29.81R
MAHNOMEN       FAIR      68  38  33 S9        29.78R
$$
MNZ006-009>011-018-025>026-060400-
   North Central Minnesota

CITY           SKY/WX    TMP DP  RH WIND       PRES   REMARKS
BAUDETTE       CLEAR     69  38  32 CALM      29.70R
FLAG ISLAND    CLEAR     59  43  55 SE5       29.66S
INTL FALLS     PTCLDY    58  48  69 CALM      29.71R
WASKISH        CLEAR     77  39  25 SW12      29.73R
BIG FORK       CLEAR     66  45  45 SW6       29.75R
LONGVILLE      CLEAR     70  41  35 SW5       29.81R
GRAND RAPIDS   CLEAR     73  43  33 S8        29.80S
CRANE LAKE     CLEAR     57  52  82 CALM      29.73S
ORR            PTCLDY    73  37  27 CALM      29.72R
COOK           PTCLDY    73  45  35 SW8       29.76R
WALKER         FAIR      74  37  26 SW7       29.79R
$$
MNZ012-019>021-037-060400-
   Northeast Minnesota

CITY           SKY/WX    TMP DP  RH WIND       PRES   REMARKS
DULUTH         PTCLDY    71  41  33 SW13      29.80R
ELY            CLEAR     70  39  32 S6        29.76R
HIBBING        CLEAR     69  42  37 SW6       29.77R
EVELETH        CLEAR     68  37  32 SW5       29.79R
DULUTH HARBOR  PTCLDY    70  45  40 SW10      29.78S
TWO HARBORS    PTCLDY    66  46  48 CALM      29.77S
SILVER BAY     PTCLDY    57  39  51 CALM      29.77S
GRAND MARAIS     N/A     45  35  68 E7        29.82R
G MARAIS ARPRT CLEAR     54  34  47 E3        29.83S
$$
MNZ029>031-032-039>041-046>048-054>057-064-060400-
   West Central Minnesota

CITY           SKY/WX    TMP DP  RH WIND       PRES   REMARKS
FERGUS FALLS   CLEAR     70  41  35 SW8       29.80R
WHEATON        CLEAR     70  45  40 S10       29.86R
MORRIS         CLEAR     66  39  37 S7        29.86R
ALEXANDRIA     CLEAR     70  42  36 SW10      29.88R
ELBOW LAKE     FAIR      65  42  42 S9        29.86R
WADENA         CLEAR     68  43  40 S7        29.84R
GLENWOOD       CLEAR     64  43  45 SW8       29.89R
APPLETON       CLEAR     72  41  33 S7        29.87R
BENSON         CLEAR     70  39  32 SW8       29.88R
ORTONVILLE     CLEAR     66  43  42 S5        29.87R
MADISON        CLEAR     64  43  45 S8        29.88S
WILLMAR        FAIR      72  45  37 SW7       29.91R
$$
MNZ033>034-036-042>043-049>051-058-059-060400-
   Central Minnesota

CITY           SKY/WX    TMP DP  RH WIND       PRES   REMARKS
ST CLOUD       CLEAR     68  42  38 SW6       29.86R
SAUK CENTRE      N/A     65  45  48 SW6       29.88R
PAYNESVILLE    CLEAR     71  40  32 SW8       29.89R
AITKIN         CLEAR     73  36  25 S7        29.81R
PINE RIVER     CLEAR     64  46  52 CALM      29.85R
BRAINERD       CLEAR     69  44  40 S8        29.83R
STAPLES        CLEAR     72  39  30 SW8       29.84R
LONG PRAIRIE   FAIR      68  45  42 S6        29.87R
LITTLE FALLS   CLEAR     68  41  37 SW5       29.86R
LITCHFIELD     CLEAR     70  43  37 SW3       29.90R
BUFFALO        CLEAR     68  43  40 SW3       29.88R
MAPLE LAKE     PTCLDY    69  46  42 SW5       29.88R
HUTCHINSON     PTCLDY    70  45  40 SW6       29.92R
$$
MNZ037-044-045-052-053-060400-
   East Central Minnesota

CITY           SKY/WX    TMP DP  RH WIND       PRES   REMARKS
PRINCETON      CLEAR     64  43  45 CALM      29.86R
MORA           CLEAR     61  41  48 SW3       29.86S
CAMBRIDGE      CLEAR     70  48  46 S5        29.84S
RUSH CITY      PTCLDY    66  39  37 S6        29.85S
MOOSE LAKE     MOCLDY    63  37  39 SW5       29.81R
HINCKLEY       CLOUDY    63  45  51 S3        29.84S
CLOQUET        PTCLDY    70  36  28 SW7       29.81S
MCGREGOR       CLEAR     64  45  48 S3        29.82R
$$
MNZ071>073-080-081-089-090-097-098-060400-
   Southwest Minnesota

CITY           SKY/WX    TMP DP  RH WIND       PRES   REMARKS
MONTEVIDEO     CLEAR     70  43  37 SW8       29.91R
GRANITE FALLS  CLEAR     65  44  46 S8        29.91S
CANBY          CLEAR     70  49  46 SW7       29.90S
MARSHALL       CLEAR     66  45  46 S9        29.91R
REDWOOD FALLS  CLEAR     67  41  38 SW9       29.91R
OLIVIA         CLEAR     63  39  42 SW7       29.91R
PIPESTONE      CLEAR     59  46  63 S9        29.95R
WINDOM         CLEAR     66  39  37 CALM      29.95R
WORTHINGTON    CLEAR     65  43  44 SW12      29.96R
JACKSON        CLEAR     64  37  36 SW8       29.96S
TRACY          PTCLDY    67  44  43 SW10      29.93R
SLAYTON        CLEAR     63  42  46 SW10      29.95S
$$
MNZ065>067-074>077-082>085-091>093-060400-
   South Central Minnesota

CITY           SKY/WX    TMP DP  RH WIND       PRES   REMARKS
MANKATO        CLEAR     70  37  30 S8        29.92R
ST JAMES       CLEAR     61  39  44 S5        29.94R
FAIRMONT       CLEAR     64  39  39 SW8       29.94R
GLENCOE        CLEAR     69  46  43 SW3       29.90R
FARIBAULT      CLEAR     66  41  39 S3        29.92R
OWATONNA       CLEAR     63  37  39 S9        29.93S
WASECA         CLEAR     59  37  44 S7        29.94S
ALBERT LEA     CLEAR     63  45  51 SW3       29.95R
$$
MNZ078>079-086>088-094>096-060400-
   Southeast Minnesota

CITY           SKY/WX    TMP DP  RH WIND       PRES   REMARKS
ROCHESTER      CLEAR     59  39  47 S7        29.96R
RED WING       CLEAR     55  43  62 E3        29.89S
STANTON        CLEAR     60  38  45 S5        29.89S
DODGE CENTER   CLEAR     55  37  50 SW8       29.94R
WINONA         CLEAR     59  46  63 CALM      29.93R
AUSTIN         CLEAR     63  37  39 S3        29.95R
PRESTON        CLEAR     58  38  49 SW7       29.96S
$$
ABBREVIATIONS USED IN REMARKS
   TC - TEMPERATURES IN CELSIUS
  WCI - WIND CHILL INDEX
   HX - HEAT INDEX
  VSB - VISIBILITY
$$



USA.gov is the U.S. government's official web portal to all federal, state and local government web resources and services.